Regional Weather Roundup
Issued by NWS

Home | Current Version | Previous Version | Graphics & Text | Print | Product List | Glossary On
Versions: 1 2 3 4 5 6 7 8 9 10 11 12 13 14 15 16 17 18 19 20 21 22 23 24 25 26 27 28 29 30 31 32 33 34 35 36 37 38 39 40 41 42 43 44 45 46 47 48 49 50
000
ASUS43 KLMK 291202
RWRKY
KENTUCKY REGIONAL WEATHER ROUNDUP
NATIONAL WEATHER SERVICE LOUISVILLE KY
800 AM EDT MON AUG 29 2016

NOTE "FAIR" INDICATES FEW OR NO CLOUDS BELOW 12,000 FEET
WITH NO SIGNIFICANT WEATHER AND/OR OBSTRUCTIONS TO VISIBILITY.

KYZ001>023-026-027-061>063-070>075-291300-
WESTERN AND SOUTH CENTRAL KENTUCKY

CITY           SKY/WX    TMP DP  RH WIND       PRES   REMARKS
PADUCAH        CLEAR     73  71  93 CALM      30.14R
HENDERSON      CLEAR     72  66  83 E3        30.16R
OWENSBORO      CLEAR     74  71  90 NE7       30.18R
HOPKINSVILLE   CLEAR     71  69  92 CALM      30.14R
BOWLING GREEN  PTCLDY    72  68  87 NE5       30.16R
GLASGOW        CLEAR     69  69 100 NE6       30.17R
$$

KYZ024-025-028>034-038-045-046-053-291300-
NORTH CENTRAL KENTUCKY

CITY           SKY/WX    TMP DP  RH WIND       PRES   REMARKS
LOUISVILLE/SDF PTCLDY    73  68  84 NE3       30.19R
LOUISVILLE/LOU PTCLDY    71  67  87 NW3       30.20R
FORT KNOX      CLEAR     70  68  93 NE6       30.18R
$$

KYZ035>037-039>044-047>052-055>060-089>105-291300-
NORTHEAST KENTUCKY

CITY           SKY/WX    TMP DP  RH WIND       PRES   REMARKS
LEXINGTON      CLEAR     70  68  93 CALM      30.20R FOG
COVINGTON      PTCLDY    70  69  97 N5        30.21R
FRANKFORT      CLEAR     70  67  90 CALM      30.19R
$$

KYZ054-064>069-076>088-106>120-291300-
SOUTHEAST KENTUCKY

CITY           SKY/WX    TMP DP  RH WIND       PRES   REMARKS
JACKSON        SUNNY     69  66  90 CALM      30.22R
LONDON         SUNNY     70  67  90 CALM      30.20R
SOMERSET       CLEAR     68  68 100 CALM      30.20R
MIDDLESBORO    CLOUDY    68  68 100 CALM      30.21R FOG
MONTICELLO     SUNNY    N/A N/A N/A NW8       30.20R
$$





USA.gov is the U.S. government's official web portal to all federal, state and local government web resources and services.